[[{"header":{"parameterUnit":"m.s-1","parameterCategory":1,"la1":30.2991,"la2":30.254,"lo1":-89.0895,"lo2":-89.0444,"dy":0.0017,"dx":0.0017,"nx":28,"ny":28,"refTime":"2025-08-20T09:00:00:Z","depth":0,"parameterNumber":2,"parameterNumberName":"U-component_of_WINDS"},"data":[0,0,0,0,0,0,0,0,0,0,0,0,0,0,0,0,0,0,0,0,0,0,0,0,0,0,0,0,0,0,0,0,0,0,0,0,0,0,0,0,0,0,0,0,0,0,0,0,0,0,0,0,0,0,0,0,0,0,1.0503,1.0504,0,1.061,1.0611,1.0613,1.0656,1.0656,1.0655,1.0655,1.0763,1.0766,1.0769,0,0,0,0,0,0,0,0,0,0,0,0,0,1.0333,1.0336,1.0503,1.0504,1.0506,1.061,1.0612,1.0613,1.0656,1.0656,1.0655,1.0655,1.0762,1.0766,1.077,0,0,0,0,0,0,0,0,0,0,0,0,0,1.042,1.0337,1.0503,1.054,1.0544,1.061,1.0612,1.0613,1.0656,1.0656,1.0655,1.0655,1.0761,1.0766,1.077,1.0806,0,0,1.0784,1.0786,0,0,0,0,0,0,0,0,1.0415,1.0426,1.0533,1.0537,1.0542,1.0619,1.0591,1.0678,1.0656,1.0614,1.0655,1.0655,1.0716,1.0724,1.0745,1.0811,1.0816,1.0785,1.0788,1.079,1.0791,0,0,0,0,0,0,0,1.0409,1.0422,1.0546,1.0535,1.054,1.055,1.0562,1.0608,1.0665,1.0617,1.0621,1.0633,1.0718,1.074,1.0748,1.0818,1.0785,1.0789,1.0792,1.0794,1.0918,1.0919,0,0,0,0,0,0,1.0397,1.0417,1.0542,1.0549,1.0477,1.0554,1.0567,1.0595,1.0665,1.0675,1.0633,1.0634,1.0732,1.0742,1.0752,1.0798,1.079,1.0794,1.0797,1.0918,1.0918,1.0919,0,0,0,0,0,0,1.0394,1.0408,1.0538,1.0484,1.0501,1.0557,1.0588,1.0597,1.062,1.0677,1.0687,1.0645,1.0733,1.0745,1.0792,1.0803,1.0796,1.08,1.0917,1.0918,1.0919,1.0892,0,0,0,0,0,0,1.0389,1.0407,1.0422,1.0484,1.0504,1.0577,1.0589,1.06,1.0628,1.0631,1.0691,1.0701,1.0733,1.0785,1.0797,1.0809,1.0804,1.0916,1.0917,1.0918,1.0892,1.0891,1.0891,0,0,0,0,0,1.0382,1.041,1.0422,1.0437,1.0524,1.0578,1.0589,1.0626,1.0628,1.0643,1.068,1.0699,1.0799,1.079,1.0803,1.0817,1.0916,1.0917,1.0918,1.0892,1.0891,1.0891,0,0,0,0,0,0,1.0347,1.0418,1.0433,1.0482,1.0523,1.0585,1.0605,1.0625,1.0666,1.0667,1.0711,1.0724,1.0768,1.0797,1.0785,1.0855,1.0859,1.0863,1.0834,1.0834,1.0834,1.0826,1.0808,0,0,0,0,0,1.0344,1.0383,1.0443,1.048,1.05,1.0549,1.0574,1.0599,1.0644,1.0662,1.0702,1.0744,1.0785,1.0811,1.0852,1.0896,1.0909,1.0912,1.0911,1.0911,1.0914,1.0938,1.094,1.0923,1.0923,1.0923,0,0,1.034,1.0384,1.0406,1.0474,1.0509,1.0548,1.0564,1.0604,1.0632,1.0668,1.0715,1.0745,1.0795,1.0841,1.0863,1.0866,1.0921,1.0912,1.0911,1.0915,1.0939,1.0941,1.0942,1.0924,1.0923,1.0923,0,0,1.0352,1.0389,1.0424,1.0459,1.0512,1.0544,1.0552,1.0611,1.0633,1.0681,1.0708,1.0742,1.0812,1.0847,1.0873,1.0897,1.0915,1.0909,1.0906,1.093,1.0931,1.0932,1.094,1.0943,1.0911,1.0911,1.0911,0,1.034,1.04,1.0439,1.0478,1.0506,1.054,1.0575,1.0607,1.067,1.0689,1.0692,1.078,1.0816,1.087,1.0875,1.0896,1.0906,1.0902,1.0928,1.093,1.0932,1.094,1.0942,1.091,1.091,1.091,1.0911,0,1.0381,1.0422,1.0443,1.0505,1.0536,1.0572,1.0616,1.0642,1.0664,1.0696,1.0743,1.0788,1.0838,1.0852,1.0874,1.0909,1.0909,1.0919,1.0925,1.0931,1.094,1.0943,1.0908,1.0909,1.0909,1.091,0,0,1.0375,1.0457,1.0464,1.0492,1.0552,1.0584,1.0621,1.0671,1.0692,1.0735,1.0766,1.0824,1.0834,1.0864,1.089,1.091,1.0925,1.0918,1.092,1.0918,1.0965,1.0957,1.096,1.0938,1.0938,1.0939,1.0961,0,1.0394,1.0464,1.05,1.0553,1.059,1.0623,1.0655,1.0695,1.0725,1.076,1.0793,1.0833,1.0843,1.0862,1.0883,1.0919,1.0935,1.0918,1.0967,1.0968,1.0954,1.0965,1.0956,1.0975,1.0964,1.0965,1.0966,0,1.0427,1.0469,1.0526,1.0582,1.0599,1.0628,1.0676,1.0709,1.0755,1.0775,1.0808,1.0834,1.0873,1.0875,1.0929,1.0916,1.0938,1.0959,1.096,1.0966,1.0967,1.0971,1.0982,1.0985,1.0971,1.0971,1.097,0,1.0416,1.0487,1.053,1.0553,1.0619,1.0638,1.0667,1.0712,1.0739,1.0781,1.0799,1.0844,1.0868,1.0902,1.0939,1.0937,1.0989,1.0994,1.1006,1.1006,1.1016,1.1015,1.1031,1.103,1.103,1.103,1.103,0,1.0434,1.0467,1.0526,1.0553,1.0591,1.0631,1.0668,1.0698,1.0738,1.0771,1.0801,1.083,1.0877,1.0912,1.094,1.098,1.0991,1.1008,1.1015,1.1006,1.1003,1.1021,1.1021,1.1031,1.1031,1.1031,1.1031,0,1.0428,1.0469,1.0518,1.0577,1.0592,1.0617,1.0667,1.0694,1.0725,1.0765,1.0777,1.0826,1.0868,1.0908,1.0964,1.0984,1.1024,1.1033,1.1009,1.1013,1.1023,1.1021,1.1051,1.1056,1.1051,1.1051,1.1051,0,1.0437,1.0464,1.0525,1.0549,1.0577,1.0616,1.0644,1.0684,1.0712,1.0765,1.0785,1.083,1.0868,1.0935,1.0974,1.1018,1.1028,1.1035,1.1035,1.1024,1.1028,1.1026,1.1029,1.1035,1.1035,1.1035,1.1034,0,1.0449,1.0467,1.0507,1.0553,1.0586,1.0624,1.0663,1.068,1.0728,1.0757,1.0802,1.0831,1.0889,1.0933,1.0981,1.1009,1.1029,1.1034,1.1039,1.103,1.1014,1.1023,1.1007,1.1033,1.1034,1.1034,1.1034,1.1034,1.0451,1.0475,1.0523,1.0565,1.0599,1.0634,1.0662,1.0697,1.0734,1.0785,1.0806,1.0851,1.0895,1.0961,1.0989,1.1024,1.1028,1.1036,1.1038,1.1039,1.1037,1.1008,1.1033,1.1033,1.1033,1.1033,1.1033,0,1.0463,1.0495,1.0534,1.0588,1.0621,1.0638,1.0682,1.0708,1.0747,1.0787,1.0824,1.0874,1.0917,1.096,1.1004,1.1024,1.1034,1.1034,1.1033,1.1039,1.1031,1.1022,1.1025,1.1025,1.1025,1.1025,1.1025,1.1025,1.0474,1.0517,1.0541,1.0601,1.0632,1.0677,1.07,1.0733,1.0764,1.0819,1.0855,1.0883,1.0924,1.0971,1.1011,1.1022,1.1037,1.1034,1.1048,1.104,1.104,1.104,1.1032,1.1037,1.1037,1.1054,1.1054,1.1054]},{"header":{"parameterUnit":"m.s-1","parameterCategory":1,"la1":30.2991,"la2":30.254,"lo1":-89.0895,"lo2":-89.0444,"dy":0.0017,"dx":0.0017,"nx":28,"ny":28,"refTime":"2025-08-20T09:00:00:Z","depth":0,"parameterNumber":3,"parameterNumberName":"V-component_of_WINDS"},"data":[0,0,0,0,0,0,0,0,0,0,0,0,0,0,0,0,0,0,0,0,0,0,0,0,0,0,0,0,0,0,0,0,0,0,0,0,0,0,0,0,0,0,0,0,0,0,0,0,0,0,0,0,0,0,0,0,0,0,3.9953,3.9952,0,3.9892,3.9892,3.9891,3.9824,3.9823,3.9822,3.9821,3.9756,3.9755,3.9754,0,0,0,0,0,0,0,0,0,0,0,0,0,4.0008,4.0008,3.9953,3.9952,3.9952,3.9892,3.9892,3.9891,3.9824,3.9823,3.9822,3.9821,3.9756,3.9755,3.9754,0,0,0,0,0,0,0,0,0,0,0,0,0,3.997,4.0007,3.9953,3.9911,3.9907,3.9893,3.9892,3.9891,3.9824,3.9823,3.9821,3.982,3.9756,3.9755,3.9754,3.9775,0,0,3.975,3.9749,0,0,0,0,0,0,0,0,3.9972,3.9968,3.9918,3.9914,3.9909,3.9864,3.9887,3.9852,3.9825,3.9856,3.9821,3.9819,3.9793,3.9788,3.978,3.9772,3.9769,3.975,3.9749,3.9748,3.9748,0,0,0,0,0,0,0,3.9975,3.997,3.9929,3.9918,3.9912,3.9894,3.9887,3.988,3.9833,3.9853,3.9848,3.9842,3.979,3.9781,3.9778,3.9768,3.975,3.9749,3.9748,3.9747,3.9773,3.9774,0,0,0,0,0,0,3.9984,3.9972,3.9931,3.9927,3.9938,3.9895,3.9887,3.988,3.9833,3.9824,3.9843,3.9839,3.9784,3.978,3.9775,3.9796,3.9748,3.9747,3.9747,3.9771,3.9773,3.9774,0,0,0,0,0,0,3.9986,3.9981,3.9933,3.9948,3.9941,3.9895,3.9888,3.988,3.9871,3.9825,3.9816,3.9843,3.9783,3.9777,3.9775,3.9793,3.9747,3.9746,3.9769,3.9772,3.9774,3.9838,0,0,0,0,0,0,3.9987,3.9982,3.999,3.9949,3.9941,3.9936,3.989,3.988,3.9869,3.9863,3.9823,3.9815,3.9781,3.9778,3.9774,3.979,3.9745,3.9768,3.977,3.9773,3.9834,3.9842,3.9849,0,0,0,0,0,3.999,4.001,3.9991,3.9986,3.995,3.9937,3.9932,3.9893,3.9871,3.9879,3.9849,3.9816,3.9792,3.9778,3.9774,3.979,3.9766,3.977,3.9773,3.9831,3.9841,3.9849,0,0,0,0,0,0,4.0054,4.0004,3.9982,3.9991,3.9969,3.9926,3.9934,3.9905,3.9888,3.9883,3.9835,3.9827,3.983,3.981,3.9795,3.9807,3.9774,3.9777,3.982,3.9829,3.9836,3.9841,3.9743,0,0,0,0,0,4.0069,4.0063,4.002,4.0032,4.0022,3.998,3.9973,3.9945,3.992,3.991,3.988,3.9856,3.9843,3.9835,3.982,3.9831,3.9821,3.984,3.9847,3.9854,3.9856,3.9859,3.9867,3.9785,3.9785,3.9785,0,0,4.01,4.0073,4.0072,4.0044,4.0023,4.0017,3.9972,3.9968,3.9963,3.9909,3.9905,3.9883,3.9853,3.9857,3.9858,3.984,3.9877,3.9858,3.9863,3.9862,3.9863,3.9871,3.9878,3.9787,3.9787,3.9786,0,0,4.0154,4.0133,4.014,4.0121,4.0091,4.0063,4.0065,4.0026,4.0009,4.0005,3.9964,3.9957,3.9935,3.9915,3.9902,3.9948,3.9916,3.9944,3.9983,3.9986,3.9993,3.9998,4.0013,4.002,3.9947,3.9947,3.9947,0,4.0196,4.0186,4.0147,4.0145,4.0133,4.0085,4.0091,4.0074,4.0041,4.0033,4.0014,3.9986,3.9962,3.9961,3.9972,3.9964,3.9963,3.9948,3.9995,4.0,4.0005,4.0019,4.0025,3.9951,3.995,3.995,3.995,0,4.0239,4.0233,4.0242,4.0212,4.0202,4.0204,4.0163,4.0157,4.0131,4.0104,4.01,4.007,4.0048,4.0046,4.002,4.0041,4.0031,4.0004,3.997,4.0017,4.0029,4.0034,3.9956,3.9954,3.9953,3.9953,0,0,4.0331,4.0279,4.0283,4.0268,4.0232,4.0226,4.0225,4.0205,4.02,4.0179,4.0176,4.0159,4.0134,4.0119,4.009,4.0094,4.0131,4.0067,4.0065,4.0079,4.015,4.017,4.0177,4.011,4.0111,4.0112,4.0152,0,4.0377,4.0374,4.0339,4.0345,4.0339,4.0293,4.0292,4.0269,4.0245,4.0234,4.0207,4.0195,4.0164,4.0154,4.0156,4.0126,4.0144,4.0123,4.0106,4.0105,4.0114,4.0183,4.0203,4.0243,4.0157,4.0158,4.0158,0,4.043,4.0413,4.042,4.0383,4.0379,4.0379,4.0357,4.0348,4.032,4.0302,4.0286,4.0253,4.0249,4.0218,4.021,4.0196,4.0187,4.0171,4.0172,4.0168,4.0134,4.018,4.0255,4.0261,4.0166,4.0165,4.0165,0,4.0495,4.0474,4.0475,4.0464,4.0421,4.0422,4.0404,4.0375,4.0365,4.0345,4.0338,4.0318,4.0306,4.0291,4.0253,4.0234,4.0249,4.0215,4.0232,4.0233,4.0236,4.0236,4.031,4.0233,4.0233,4.0233,4.0232,0,4.055,4.0556,4.0503,4.0504,4.0508,4.0467,4.0472,4.0449,4.0424,4.0418,4.0377,4.0372,4.0323,4.0313,4.0283,4.028,4.0275,4.0259,4.0251,4.0263,4.0264,4.0255,4.0251,4.0234,4.0234,4.0233,4.0233,0,4.0623,4.0588,4.0586,4.0546,4.0536,4.0541,4.0506,4.0504,4.0477,4.047,4.0466,4.0423,4.0408,4.037,4.0344,4.0324,4.0329,4.0315,4.0339,4.0334,4.0352,4.0351,4.0422,4.0429,4.0348,4.0349,4.035,0,4.066,4.0663,4.0623,4.0617,4.0601,4.0592,4.0581,4.054,4.0531,4.05,4.0501,4.0483,4.0467,4.0445,4.0411,4.0391,4.0375,4.0401,4.0371,4.0382,4.0374,4.0374,4.0373,4.0407,4.0408,4.0409,4.041,0,4.0728,4.0711,4.0698,4.0679,4.0668,4.0651,4.0631,4.0628,4.0582,4.0573,4.0558,4.0546,4.052,4.0502,4.0477,4.0457,4.0425,4.042,4.0422,4.0433,4.0447,4.0439,4.0355,4.0418,4.0417,4.0417,4.0416,4.0416,4.0783,4.0783,4.0756,4.0743,4.0724,4.0707,4.0703,4.0676,4.0663,4.064,4.0616,4.0603,4.0574,4.0538,4.052,4.0508,4.0491,4.0496,4.0496,4.0498,4.0502,4.045,4.0503,4.0503,4.0502,4.0502,4.0502,0,4.0848,4.0828,4.0817,4.0791,4.0781,4.0754,4.073,4.0723,4.0713,4.0689,4.0674,4.0656,4.0639,4.0603,4.0582,4.058,4.0564,4.0575,4.0574,4.057,4.0519,4.0518,4.0588,4.0588,4.0588,4.0588,4.0588,4.0588,4.0881,4.088,4.086,4.0849,4.0828,4.0817,4.0805,4.0789,4.077,4.0752,4.0738,4.0715,4.0687,4.0663,4.0645,4.0635,4.0629,4.0644,4.0629,4.0582,4.0574,4.0566,4.0565,4.0643,4.0643,4.0681,4.0681,4.0681]}]]